Regional Weather Roundup
Issued by NWS

Current Version | Previous Version | Text Only | Print | Product List | Glossary On
Versions: 1 2 3 4 5 6 7 8 9 10 11 12 13 14 15 16 17 18 19 20 21 22 23 24 25 26 27 28 29 30 31 32 33 34 35 36 37 38 39 40 41 42 43 44 45 46 47 48 49 50
000
ASUS42 KKEY 260910
RWRKEY

FLORIDA REGIONAL WEATHER ROUNDUP FOR THE FLORIDA KEYS
NATIONAL WEATHER SERVICE KEY WEST FLORIDA
500 AM EDT WED JUL 26 2017

...SOUTH FLORIDA AND THE KEYS...

CITY           SKY/WX    TMP DP  RH WIND       PRES   REMARKS
FORT MYERS     PTCLDY    80  79  96 CALM      30.06S
SW REGIONAL AP PTCLDY    79  76  90 CALM      30.06F
NAPLES         CLOUDY    82  79  90 CALM      30.06S HX  92
MIAMI          MOCLDY    84  76  76 E6        30.06F HX  93
WEST KENDALL   CLEAR     81  77  88 E3        30.05F
HOMESTEAD      PTCLDY    82  79  93 E3        30.05F HX  92
MARATHON       PTCLDY    84  78  82 E6        30.04F HX  95
BOCA CHICA NAS PTCLDY    83  79  88 E9        30.05F HX  94
KEY WEST INTL  PTCLDY    85  77  77 E9        30.06S HX  95

...INTERNATIONAL WEATHER...

CITY           SKY/WX    TMP DP  RH WIND       PRES   REMARKS
NASSAU BAHAMAS PTCLDY    84  72  65 E5        30.08F
CANCUN MEXICO  MOCLDY   N/A N/A N/A CALM        N/A
COZUMEL MEXICO PTCLDY    79  77  94 CALM      30.00F

ADJACENT COASTAL WATERS...

STATION/POSITION TIME  SKY/WX   TEMP    WIND        PRES    WAVE
                                AIR SEA DIR/SP/G            HT/PER
                 (UTC)          (F)     (DEG/KT/KT) (MB)    (FT/S)
PULASKI SHOAL LI 0900            84     120/  3/  4 1018.1F
SAND KEY         0850            84                 1018.4F
LONG KEY         NOT AVBL
MOLASSES REEF    NOT AVBL
FOWEY ROCKS      0900            84 86   90/ 11/ 12 1018.4F
Buoy 42097       0830               87                N/A     1/ 5

$$



USA.gov is the U.S. government's official web portal to all federal, state and local government web resources and services.